User: anonymous   Login
Location: *
(6.0000°S, 32.3997°W)
Time: 10:49:25
(UTC+00:00)
Language:

SL-08 ROCKET BODY - Orbit

View from above orbital plane
View from above orbital plane
View from above satellite
View from above satellite

Ground track
Ground track

The orbit data is extracted from the following two-line orbital elements,

1 28522U 05002B   20184.87353832 +.00000089 +00000-0 +59723-4 0  9997
2 28522 082.9461 233.0677 0044850 334.9028 024.9955 13.89573206783443
Epoch (UTC): 02 July 2020 20:57:53
Eccentricity: 0.0044850
inclination: 82.9461°
perigee height: 897 km
apogee height: 963 km
right ascension of ascending node: 233.0677°
argument of perigee: 334.9028°
revolutions per day: 13.89573206
mean anomaly at epoch: 24.9955°
orbit number at epoch: 78344

The dashed part of the orbit path shows where the satellite is in the earth's shadow,  

DLR